Location: Gad�tanya
(48.0500°N, 20.8500°E)
Time: 07:52:54
(UTC+00:00)

SL-8 Rocket - Pass Details

Date: 05 July 2020
Orbit: 957 x 990 km, 82.9° (Epoch: 05 August)

Event Time Altitude Azimuth Distance (km) Brightness Sun altitude
Exits shadow 21:46:22 30° 159° (SSE) 1,665 4.6 -18.2°
Maximum altitude 21:49:24 58° 93° (E) 1,109 4.2 -18.3°
Drops below altitude 10° 21:55:26 10° 16° (NNE) 2,702 7.3 -18.5°
Sets 21:57:58 0° 13° (NNE) 3,651 8.2 -18.6°
